Regional Weather Roundup
Issued by NWS

Home | Current Version | Previous Version | Text Only | Print | Product List | Glossary On
Versions: 1 2 3 4 5 6 7 8 9 10 11 12 13 14 15 16 17 18 19 20 21 22 23 24 25 26 27 28 29 30 31 32 33 34 35 36 37 38 39 40 41 42 43 44 45 46 47 48 49 50
908
ASUS43 KLSX 300210
RWRMO

WEATHER SUMMARY FOR MISSOURI
NATIONAL WEATHER SERVICE SPRINGFIELD MO
900 PM CDT FRI JUL 29 2016

NOTE: "FAIR" INDICATES FEW OR NO CLOUDS BELOW 12,000 FEET WITH NO
       SIGNIFICANT WEATHER AND/OR OBSTRUCTIONS TO VISIBILITY.
       CURRENT SKY AND/OR WEATHER CONDITIONS ARE NOT AVAILABLE FOR
       CHILLICOTHE AND FARMINGTON.

MOZ001>031-035>038-043-044-053-054-300300-
...NORTHERN AND WESTERN MISSOURI...

CITY           SKY/WX    TMP DP  RH WIND       PRES   REMARKS
KANSAS CTY INT CLEAR     74  62  66 N5        29.98S
KANSAS C DTWN  CLEAR     79  63  57 N7        29.96R
LEE`S SUMMIT   CLEAR     76  63  64 N6        29.97S
ST JOSEPH      CLEAR     70  63  78 NW6       29.98R
CHILLICOTHE      N/A     73  64  73 CALM      29.98R
KIRKSVILLE     CLEAR     70  63  78 N6        29.98R

$$
MOZ066>068-077>081-088>096-101>105-300300-
...SOUTHWEST MISSOURI...

CITY           SKY/WX    TMP DP  RH WIND       PRES   REMARKS
SPRINGFIELD    CLEAR     77  69  76 E6        29.97R
JOPLIN         CLEAR     78  70  76 NE3       29.97R
BRANSON        PTCLDY    75  73  94 CALM      29.99R

$$
MOZ032>034-039>042-045>050-055>058-069>072-300300-
...CENTRAL MISSOURI...

CITY           SKY/WX    TMP DP  RH WIND       PRES   REMARKS
COLUMBIA       CLEAR     74  67  78 NW5       29.95S
JEFFERSON CITY CLEAR     77  67  71 CALM      29.93R
ROLLA          PTCLDY    74  70  87 NW5       29.94S
SEDALIA        CLEAR     75  67  76 N3        29.97S
WHITEMAN AFB   PTCLDY    74  69  83 NE5       29.95S
OSAGE BEACH    CLEAR     73  72  96 CALM      29.96R

$$
MOZ051-052-059>065-300300-
...EAST CENTRAL MISSOURI...

CITY           SKY/WX    TMP DP  RH WIND       PRES   REMARKS
ST LOUIS INTL  PTCLDY    79  67  66 N6        29.93R
SPIRIT OF STL  PTCLDY    77  68  73 CALM      29.91R
ST CHARLES     CLEAR     75  71  87 N5        29.91R

$$
MOZ072>076-082>087-097>100-106>115-300300-
...SOUTH CENTRAL AND SOUTHEAST MISSOURI...

CITY           SKY/WX    TMP DP  RH WIND       PRES   REMARKS
CAPE GIRARDEAU CLOUDY    72  71  97 NW3       29.92R
FARMINGTON     MOCLDY    75  73  93 S3        29.94R
POPLAR BLUFF   CLOUDY    72  70  93 N3        29.93R
WEST PLAINS    CLOUDY    72  69  90 SW3       29.99S

$$




USA.gov is the U.S. government's official web portal to all federal, state and local government web resources and services.